This is the latest recevied weather packets stored in our database for station/object N9CQL. If no packets are shown the sender has not sent any weather packets the latest 10 day(s).
| Time | Temp. | Humidity | Pressure | Rain* | Wind** | Luminosity | Snow |
|---|---|---|---|---|---|---|---|
| 1777822867 | 13.33° C | 58% | 1012.7 hPa | 0 mm | - | 107 W/m² | - |
| 1777822565 | 13.89° C | 56% | 1012.3 hPa | 0 mm | - | 188 W/m² | - |
| 1777822262 | 13.89° C | 57% | 1012.4 hPa | 0 mm | - | 249 W/m² | - |
| 1777821960 | 13.33° C | 59% | 1012.4 hPa | 0 mm | - | 244 W/m² | - |
| 1777821658 | 13.33° C | 60% | 1012.4 hPa | 0 mm | - | 243 W/m² | - |
| 1777821355 | 12.78° C | 60% | 1012.4 hPa | 0 mm | - | 217 W/m² | - |
| 1777821052 | 12.78° C | 59% | 1012.5 hPa | 0 mm | - | 153 W/m² | - |
| 1777820748 | 12.78° C | 60% | 1012.3 hPa | 0 mm | - | 173 W/m² | - |
| 1777820445 | 12.78° C | 60% | 1012.6 hPa | 0 mm | - | 199 W/m² | - |
| 1777820142 | 12.78° C | 59% | 1012.7 hPa | 0 mm | - | 200 W/m² | - |
| 1777819839 | 12.78° C | 60% | 1012.5 hPa | 0 mm | - | 191 W/m² | - |
| 1777819536 | 12.78° C | 60% | 1012.4 hPa | 0 mm | - | 186 W/m² | - |
| 1777819234 | 12.78° C | 59% | 1012.6 hPa | 0 mm | - | 178 W/m² | - |
| 1777818931 | 12.22° C | 60% | 1012.5 hPa | 0 mm | - | 180 W/m² | - |
| 1777818627 | 12.22° C | 61% | 1012.7 hPa | 0 mm | - | 182 W/m² | - |
| 1777818325 | 12.22° C | 59% | 1012.7 hPa | 0 mm | - | 175 W/m² | - |
| 1777818020 | 12.22° C | 61% | 1012.7 hPa | 0 mm | - | 165 W/m² | - |
| 1777817718 | 11.67° C | 60% | 1012.8 hPa | 0 mm | - | 171 W/m² | - |
| 1777817415 | 11.67° C | 61% | 1012.9 hPa | 0 mm | - | 162 W/m² | - |
| 1777817111 | 11.67° C | 61% | 1012.8 hPa | 0 mm | - | 151 W/m² | - |
| 1777816808 | 11.67° C | 61% | 1012.9 hPa | 0 mm | - | 147 W/m² | - |
| 1777816506 | 11.67° C | 62% | 1013 hPa | 0 mm | - | 165 W/m² | - |
| 1777816203 | 11.67° C | 61% | 1012.9 hPa | 0 mm | - | 157 W/m² | - |
| 1777815901 | 11.11° C | 61% | 1012.8 hPa | 0 mm | - | 134 W/m² | - |
| 1777815597 | 11.11° C | 62% | 1012.6 hPa | 0 mm | - | 126 W/m² | - |
* Rain latest hour (hover to see other rain measurements)
** Current wind speed in m/s (hover to see current wind gust speed)